Regional Weather Roundup
Issued by NWS

Home | Current Version | Previous Version | Text Only | Print | Product List | Glossary Off
Versions: 1 2 3 4 5 6 7 8 9 10 11 12 13 14 15 16 17 18 19 20 21 22 23 24 25 26 27 28 29 30 31 32 33 34 35 36 37 38 39 40 41 42 43 44 45 46 47 48 49 50

000
ASUS43 KDMX 270403
RWRIA

WEATHER ROUNDUP FOR IOWA
NATIONAL WEATHER SERVICE DES MOINES IA
1100 PM CDT MON SEP 26 2016

NOTE: "FAIR" INDICATES FEW OR NO CLOUDS BELOW 12,000 FEET WITH NO
SIGNIFICANT WEATHER AND/OR OBSTRUCTIONS TO VISIBILITY.

* - THESE STATIONS ARE NOT NWS STATIONS...THUS NOT UNDER NWS
QUALITY CONTROL.  THEY ALSO DO NOT REPORT WEATHER SUCH
AS PRECIPITATION OR FOG.

IAZ001>003-012>014-020>022-031>034-043>046-270500-
   NORTHWEST IOWA

CITY           SKY/WX    TMP DP  RH WIND       PRES   REMARKS
CARROLL *      CLEAR     52  45  76 W7        30.04S
CHEROKEE *     CLEAR     51  42  70 CALM      30.04S
DENISON *      CLEAR     50  45  81 SW3       30.03F
LE MARS *      CLEAR     54  43  66 W3        30.06S
ORANGE CITY *  CLEAR     50  43  76 CALM      30.05S
SHELDON *      CLEAR     48  39  71 W7        30.02F
SIOUX CITY     CLEAR     58  44  60 NW3       30.06S
SPENCER        CLEAR     44  38  79 W6        30.03S
STORM LAKE *   CLEAR     50  43  76 W10       30.04F
$$

IAZ055>058-069>071-079>083-090>094-270500-
   SOUTHWEST IOWA

CITY           SKY/WX    TMP DP  RH WIND       PRES   REMARKS
ATLANTIC *     CLEAR     52  48  87 CALM      30.06S
AUDUBON *      CLEAR     52  45  76 CALM      30.06S
CLARINDA *       N/A     55  48  76 MISG      30.10R
COUNCIL BLFS * CLEAR     61  43  51 CALM      30.07F
CRESTON *      CLEAR     55  45  67 W5        30.08S
HARLAN  *      CLEAR     54  45  71 CALM      30.09F
LAMONI         CLEAR     56  46  69 SW7       30.05F
RED OAK *      CLEAR     54  48  82 S3        30.08R
SHENANDOAH *   CLEAR     52  48  87 CALM      30.09R
$$

IAZ047>049-059>061-072>074-084-270500-
   CENTRAL IOWA

CITY           SKY/WX    TMP DP  RH WIND       PRES   REMARKS
AMES           CLEAR     53  46  77 W8        30.00F
ANKENY *         N/A    N/A N/A N/A MISG        N/A
BOONE *        CLEAR     61  41  48 W12G17    30.01S
CHARITON *       N/A     55  46  71 W7        30.04S
DES MOINES     CLEAR     57  45  64 W5        30.02S
GRINNELL*      CLEAR     56  42  60 SW7       30.01S
KNOXVILLE *    CLEAR     55  45  67 SW8       30.01S
MARSHALLTOWN   CLEAR     55  43  63 W9        29.98S
NEWTON *       CLEAR     54  43  66 W7        30.00F
PELLA *        CLEAR     58  46  64 W5        30.03S
PERRY *          N/A     51  45  78 W6        30.03S
$$

IAZ004>006-015-016-023>025-035-036-270500-
   NORTH CENTRAL IOWA

CITY           SKY/WX    TMP DP  RH WIND       PRES   REMARKS
ALGONA *       CLEAR     50  41  71 W7        30.00S
CLARION *      CLEAR     52  43  71 W8        29.99F
ESTHERVILLE    CLEAR     45  38  76 W9        30.00S
FORT DODGE *   CLEAR     54  39  58 W7        30.01S
MASON CITY     CLEAR     49  37  63 W10       29.98S
FOREST CITY *    N/A     46  36  66 W6        29.97F
WEBSTER CITY * CLEAR     52  43  71 W8        29.99S
IOWA FALLS *     N/A     54  42  62 W9        30.00S
$$

IAZ007>011-017>019-026>030-037>042-050>054-066-270500-
   NORTHEAST IOWA

CITY           SKY/WX    TMP DP  RH WIND       PRES   REMARKS
CEDAR RAPIDS   CLEAR     53  43  68 W9        29.96F
CHARLES CITY * CLEAR     54  36  50 W7        29.95S
CLINTON *      CLEAR     50  43  77 W8        29.96S
DECORAH *      CLEAR     54  36  50 VRB5      29.90S
DUBUQUE        CLEAR     47  40  76 SW7       29.94F
MONTICELLO *   CLEAR     50  43  76 CALM      29.94F
OELWEIN *      CLEAR     48  41  76 W8        29.95S
WATERLOO       CLEAR     55  39  54 W10       29.95S
$$

IAZ064-065-067-068-078-270500-
   EAST CENTRAL IOWA

CITY           SKY/WX    TMP DP  RH WIND       PRES   REMARKS
DAVENPORT      CLEAR     57  40  52 W9        29.97S
IOWA CITY      CLEAR     53  42  66 W3        29.99F
MUSCATINE *    CLEAR     59  41  51 W9        29.99S
QUAD CITIES    CLEAR     56  41  57 W7        29.97F
$$

IAZ062-063-075>077-085>089-095>099-270500-
   SOUTHEAST IOWA

CITY           SKY/WX    TMP DP  RH WIND       PRES   REMARKS
BURLINGTON     CLEAR     53  43  68 W7        30.01F
FAIRFIELD *    CLEAR     54  43  66 SW7       30.01F
FORT MADISON * CLEAR     61  45  55 SW6       30.03S
KEOKUK *       CLEAR     55  45  67 SW7       30.03S
OSKALOOSA *      N/A     50  43  76 SW7       30.02S
OTTUMWA        CLEAR     56  44  64 SW8       30.02F
WASHINGTON *     N/A    N/A N/A N/A MISG        N/A
$$

ABBREVIATIONS USED IN REMARKS
   TC - TEMPERATURES IN CELSIUS
  WCI - WIND CHILL INDEX
   HX - HEAT INDEX
  VSB - VISIBILITY
$$





USA.gov is the U.S. government's official web portal to all federal, state and local government web resources and services.